Home > Weather > Waren (Müritz) > Past weeks

Flag for Germany Weather for the Past 2 Weeks in Waren (Müritz), Mecklenburg-Western Pomerania, Germany

Now
37 °F

Light rain. Fog.


Feels Like: 30 °F
Forecast: 27 / 35 °F
Wind: 12 mph from Northeast

Location: Laage

Current Time: Feb 15, 2016 at 1:16:34 AM

Latest Report: Feb 15, 2016 at 12:20 AM


Visibility: 3 mi

Pressure: 29.50 "Hg

Humidity: 93%

Dew point: 36 °F

Location of Waren (Müritz)Location

Historic Weather in Waren (Müritz) — Graph

°F

Waren (Müritz) Temperature Yesterday

Maximum temperature yesterday: 39 °F (at 2:20 PM)
Minimum temperature yesterday: 32 °F (at 12:20 AM)
Average temperature yesterday: 35 °F

High & Low Weather Summary for the Past Weeks

 TemperatureHumidityPressure
High54 °F (Feb 7, 1:20 PM)100% (Feb 1, 6:20 AM)30.18 "Hg (Feb 1, 6:20 AM)
Low28 °F (Feb 13, 12:20 AM)57% (Feb 2, 4:20 PM)28.77 "Hg (Feb 10, 12:20 AM)
Average40 °F86%29.56 "Hg
* Reported Jan 30 11:20 PM — Feb 14 11:20 PM, Waren (Müritz), Weather by CustomWeather, © 2016

Note: Actual official high and low records may vary slightly from our data, if they occured in-between our weather recording intervals... More about our weather records

Advertising

Waren (Müritz) Weather History for the Previous 24 Hours

 ConditionsComfort  
Time TempWeatherWind HumidityBarometerVisibility
11:20 PM
Sun, Feb 14
36 °FRain. Passing clouds.10 mph100%29.47 "Hg4 mi
10:20 PM36 °FLight rain. Passing clouds.13 mph100%29.45 "Hg5 mi
9:20 PM36 °FLight rain. Passing clouds.13 mph93%29.45 "Hg4 mi
8:20 PM36 °FLight rain. Passing clouds.13 mph100%29.42 "Hg4 mi
7:20 PM36 °FRain. Mostly cloudy.13 mph93%29.39 "Hg4 mi
6:20 PM36 °FLight rain. Passing clouds.14 mph93%29.36 "Hg4 mi
5:20 PM37 °FRain. Fog.16 mph87%29.33 "Hg3 mi
4:20 PM37 °FLight rain. Broken clouds.16 mph87%29.30 "HgN/A
3:20 PM37 °FLight rain. Partly sunny.16 mph81%29.30 "HgN/A
2:20 PM39 °FPartly sunny.15 mph75%29.27 "HgN/A
1:20 PM37 °FLight rain. Overcast.16 mph81%29.30 "HgN/A
12:20 PM37 °FLight rain. Partly sunny.16 mph81%29.27 "HgN/A
11:20 AM37 °FLight rain. Partly sunny.20 mph81%29.27 "HgN/A
10:20 AM37 °FPartly sunny.17 mph81%29.27 "HgN/A
9:20 AM36 °FBroken clouds.15 mph93%29.27 "Hg4 mi
8:20 AM34 °FPartly sunny.15 mph93%29.24 "Hg4 mi
7:20 AM34 °FPartly cloudy.17 mph87%29.24 "Hg4 mi
6:20 AM32 °FPassing clouds.17 mph93%29.24 "Hg4 mi
5:20 AM32 °FPassing clouds.10 mph93%29.27 "Hg4 mi
4:50 AM32 °FPassing clouds.14 mph93%29.27 "Hg4 mi
4:20 AM32 °FPassing clouds.14 mph93%29.27 "Hg4 mi
3:20 AM32 °FIce fog.17 mph93%29.27 "Hg2 mi
2:20 AM32 °FIce fog.14 mph93%29.30 "Hg2 mi
2:01 AM32 °FIce fog.16 mph93%29.30 "Hg2 mi
1:20 AM32 °FIce fog.15 mph93%29.30 "Hg2 mi
Weather by CustomWeather, © 2016

See weather overviewHow to use our weather pages